Location: Molino di Ancona
(43.6167°N, 13.3667°E)
Time: 22:37:29
(UTC+00:00)

FENGYUN 3A - Pass Details

Date: 15 December 2019
Orbit: 823 x 837 km, 98.4° (Epoch: 18 January)

Event Time Altitude Azimuth Distance (km) Brightness Sun altitude
Rises 05:30:20 0° 4° (N) 3,374 6.6 -10.9°
Reaches altitude 10° 05:32:55 10° 355° (N) 2,435 5.8 -10.4°
Maximum altitude 05:37:36 32° 294° (WNW) 1,393 4.3 -9.7°
Drops below altitude 10° 05:42:17 10° 233° (SW) 2,418 5.8 -8.9°
Sets 05:44:50 0° 224° (SW) 3,346 6.6 -8.5°
